Location: Bennemühlen
(52.5740°N, 9.7135°E)
Time: 19:21:05
(UTC+00:00)

SeaSat 1 - Pass Details

Date: 19 May 2025
Orbit: 738 x 740 km, 108.0° (Epoch: 20 June)

Event Time Altitude Azimuth Distance (km) Brightness Sun altitude
Exits shadow 19:57:08 - 114° (ESE) 2,687 4.7 -5.5°
Reaches altitude 10° 19:58:18 10° 109° (ESE) 2,250 4.4 -5.6°
Maximum altitude 20:02:43 35° 45° (NE) 1,182 3.5 -6.1°
Drops below altitude 10° 20:07:09 10° 340° (NNW) 2,262 6.2 -6.5°
Sets 20:09:34 0° 332° (NNW) 3,189 7.5 -6.8°
